TimeEST,TemperatureF,Dew PointF,Humidity,Sea Level PressureIn,VisibilityMPH,Wind Direction,Wind SpeedMPH,Gust SpeedMPH,PrecipitationIn,Events,Conditions,WindDirDegrees,DateUTC
12:51 AM,42.1,35.1,76,30.18,10.0,Calm,Calm,-,N/A,,Clear,0,2012-11-20 05:51:00
1:51 AM,39.9,35.1,83,30.17,10.0,Calm,Calm,-,N/A,,Clear,0,2012-11-20 06:51:00
2:51 AM,37.9,34.0,86,30.17,10.0,Calm,Calm,-,N/A,,Clear,0,2012-11-20 07:51:00
3:51 AM,37.0,34.0,89,30.17,10.0,Calm,Calm,-,N/A,,Clear,0,2012-11-20 08:51:00
4:51 AM,37.0,34.0,89,30.16,7.0,Calm,Calm,-,N/A,,Clear,0,2012-11-20 09:51:00
5:51 AM,37.0,34.0,89,30.17,8.0,SSW,3.5,-,N/A,,Clear,210,2012-11-20 10:51:00
6:51 AM,36.0,34.0,93,30.17,10.0,East,4.6,-,N/A,,Clear,90,2012-11-20 11:51:00
7:51 AM,37.0,35.1,93,30.18,10.0,Calm,Calm,-,N/A,,Clear,0,2012-11-20 12:51:00
8:51 AM,39.0,36.0,89,30.19,10.0,Calm,Calm,-,N/A,,Clear,0,2012-11-20 13:51:00
9:51 AM,41.0,37.0,86,30.18,10.0,Calm,Calm,-,N/A,,Clear,0,2012-11-20 14:51:00
10:51 AM,48.9,36.0,61,30.17,10.0,Calm,Calm,-,N/A,,Clear,0,2012-11-20 15:51:00
11:51 AM,57.0,37.0,47,30.15,10.0,Calm,Calm,-,N/A,,Clear,0,2012-11-20 16:51:00
12:51 PM,57.9,36.0,44,30.12,10.0,Calm,Calm,-,N/A,,Clear,0,2012-11-20 17:51:00
1:51 PM,60.1,36.0,41,30.10,10.0,Calm,Calm,-,N/A,,Clear,0,2012-11-20 18:51:00
2:51 PM,61.0,30.9,32,30.08,10.0,Calm,Calm,-,N/A,,Clear,0,2012-11-20 19:51:00
3:51 PM,62.1,32.0,32,30.08,10.0,NNW,3.5,-,N/A,,Mostly Cloudy,340,2012-11-20 20:51:00
4:51 PM,59.0,30.9,35,30.08,10.0,Calm,Calm,-,N/A,,Scattered Clouds,0,2012-11-20 21:51:00
5:51 PM,57.0,30.9,37,30.09,9.0,Calm,Calm,-,N/A,,Mostly Cloudy,0,2012-11-20 22:51:00
6:51 PM,55.0,32.0,42,30.10,10.0,Calm,Calm,-,N/A,,Overcast,0,2012-11-20 23:51:00
7:51 PM,54.0,32.0,43,30.11,10.0,Calm,Calm,-,N/A,,Overcast,0,2012-11-21 00:51:00
8:51 PM,53.1,33.1,47,30.12,10.0,Calm,Calm,-,N/A,,Overcast,0,2012-11-21 01:51:00
9:51 PM,52.0,33.1,49,30.13,10.0,Calm,Calm,-,N/A,,Overcast,0,2012-11-21 02:51:00
10:51 PM,48.9,34.0,56,30.13,10.0,Calm,Calm,-,N/A,,Overcast,0,2012-11-21 03:51:00
11:51 PM,48.0,34.0,58,30.13,10.0,Calm,Calm,-,N/A,,Overcast,0,2012-11-21 04:51:00